sat.trackr.live / text

‹ back to catalog

STARLINK-36072

NORAD 66856 · 2025-281J

PAYLOAD ACTIVE UNKNOWN

§ Identity

Operator
Country
US
Launch date
2025-12-02
Launch site
AFETR
Launch vehicle
Mass (kg)
RCS (m²)

Purposes: comms

External: N2YO · Heavens-Above · Gunter

§ Orbital elements

Epoch: 2026-05-24T18:01:28.895232Z

Period
94.27 min
Inclination
43.0013°
Eccentricity
0.0001437
Mean motion
15.27582307 rev/d
Perigee alt
482.1 km
Apogee alt
484.0 km
Semi-major
6,861.2 km
B*
2.7073e-4
RAAN
274.3122°
Arg perigee
267.6162°
Mean anomaly
92.4525°
Rev number
2,781

§ Raw data

STARLINK-360721 66856U 25281J   26144.75102888  .00007196  00000+0  27073-3 0  99992 66856  43.0013 274.3122 0001437 267.6162  92.4525 15.27582307 27815

JSON: /api/v1/satellites/66856 · /tle

For live sub-satellite position, see the globe view (requires WebGL).

§ Visibility from observer

Set your observer location to see the next 7 days of passes ≥ 10°. The values pass through the URL so the page stays shareable.

No JS? Fill the form by hand. The geolocation button needs JavaScript.